Weather History for Waukesha, WI

Change the Weather History Date:

Sunday, April 7, 2013

  Actual Average Record
Temperature  
Mean Temperature 41 °F -  
Max Temperature 50 °F 54 °F 80 °F (2001)
Min Temperature 32 °F 32 °F 7 °F (1982)
Degree Days  
Heating Degree Days 24    
Moisture  
Dew Point 35 °F    
Average Humidity 82    
Maximum Humidity 94    
Minimum Humidity 58    
Precipitation  
Precipitation 0.00 in - - ()
Sea Level Pressure  
Sea Level Pressure 29.81 in    
Wind  
Wind Speed 14 mph (West)    
Max Wind Speed 24 mph    
Max Gust Speed 33 mph    
Visibility 10 miles    
Events      
Averages and records for this station are not official NWS values.
T = Trace of Precipitation, MM = Missing Value Source: NWS Daily Summary

Daily Weather History Graph

Daily Weather History Graph

Search for Another Location

Airport:

Trip Planner

Search our weather history database for the weather conditions in past years. The results will help you decide how hot, cold, wet, or windy it might be!

Date:

Astronomy

Apr. 07, 2013 Rise Set
Actual Time 6:24 AM CDT 7:26 PM CDT
Civil Twilight 5:55 AM CDT 7:55 PM CDT
Nautical Twilight 5:20 AM CDT 8:30 PM CDT
Astronomical Twilight 4:44 AM CDT 9:06 PM CDT
Moon 4:45 AM CDT (4/7) 4:55 PM CDT (4/7)
Length of Visible Light 14h 00m
Length of Day
13h 02m
Waning Crescent, 8% of the Moon is Illuminated
Apr 7
Waning Crescent
Apr 10
New
Apr 18
First Quarter
Apr 25
Full
May 2
Last Quarter

Hourly Weather History & Observations

Time (CDT) Temp. Windchill Dew Point Humidity Pressure Visibility Wind Dir Wind Speed Gust Speed Precip Events Conditions
12:15 AM 50.0 °F - 46.4 °F 87% 29.56 in 10.0 mi WSW 12.7 mph - N/A   Overcast
12:35 AM 50.0 °F - 48.2 °F 94% 29.56 in 10.0 mi WSW 13.8 mph 17.3 mph N/A   Overcast
12:55 AM 50.0 °F - 46.4 °F 87% 29.57 in 10.0 mi WSW 15.0 mph 18.4 mph N/A   Overcast
1:15 AM 50.0 °F - 46.4 °F 87% 29.58 in 10.0 mi West 18.4 mph 31.1 mph N/A   Overcast
1:35 AM 46.4 °F 38.7 °F 44.6 °F 93% 29.60 in 10.0 mi West 20.7 mph 29.9 mph N/A   Overcast
1:55 AM 46.4 °F 39.5 °F 42.8 °F 87% 29.61 in 10.0 mi West 17.3 mph 27.6 mph N/A   Overcast
2:15 AM 46.4 °F 38.5 °F 42.8 °F 87% 29.61 in 10.0 mi West 21.9 mph 27.6 mph N/A   Overcast
2:35 AM 42.8 °F 33.3 °F 37.4 °F 81% 29.62 in 10.0 mi WNW 24.2 mph 33.4 mph N/A   Overcast
2:55 AM 41.0 °F 31.9 °F 37.4 °F 87% 29.63 in 10.0 mi WNW 19.6 mph 32.2 mph N/A   Overcast
3:15 AM 41.0 °F 31.4 °F 35.6 °F 81% 29.65 in 10.0 mi WNW 21.9 mph 32.2 mph N/A   Overcast
3:35 AM 41.0 °F 33.9 °F 35.6 °F 81% 29.66 in 10.0 mi West 12.7 mph 18.4 mph N/A   Overcast
3:55 AM 39.2 °F 30.8 °F 35.6 °F 87% 29.68 in 10.0 mi West 15.0 mph 29.9 mph N/A   Overcast
4:15 AM 39.2 °F 29.8 °F 33.8 °F 81% 29.68 in 10.0 mi West 18.4 mph 28.8 mph N/A   Overcast
4:35 AM 37.4 °F 27.5 °F 33.8 °F 87% 29.70 in 10.0 mi WNW 18.4 mph 26.5 mph N/A   Overcast
4:55 AM 37.4 °F 26.9 °F 33.8 °F 87% 29.71 in 10.0 mi West 20.7 mph 25.3 mph N/A   Overcast
5:15 AM 37.4 °F 28.2 °F 33.8 °F 87% 29.72 in 10.0 mi West 16.1 mph 25.3 mph N/A   Overcast
5:35 AM 37.4 °F 28.2 °F 33.8 °F 87% 29.73 in 10.0 mi West 16.1 mph 21.9 mph N/A   Overcast
5:45 AM 37.4 °F 29.8 °F 33.8 °F 87% 29.73 in 10.0 mi West 11.5 mph 20.7 mph N/A   Overcast
6:45 AM 35.6 °F 27.5 °F 32.0 °F 87% 29.79 in 10.0 mi West 11.5 mph 20.7 mph N/A   Overcast
7:45 AM 35.6 °F 27.5 °F 32.0 °F 87% 29.84 in 10.0 mi West 11.5 mph - N/A   Overcast
8:45 AM 35.6 °F 27.5 °F 32.0 °F 87% 29.88 in 10.0 mi West 11.5 mph - N/A   Overcast
9:45 AM 37.4 °F 29.8 °F 30.2 °F 75% 29.90 in 10.0 mi West 11.5 mph 18.4 mph N/A   Overcast
11:45 AM 39.2 °F 31.2 °F 32.0 °F 75% 29.95 in 10.0 mi West 13.8 mph 18.4 mph N/A   Overcast
12:45 PM 42.8 °F 36.6 °F 33.8 °F 70% 29.95 in 10.0 mi WNW 11.5 mph - N/A   Overcast
1:45 PM 44.6 °F 39.2 °F 33.8 °F 66% 29.95 in 10.0 mi West 10.4 mph - N/A   Scattered Clouds
2:45 PM 46.4 °F 41.9 °F 33.8 °F 62% 29.96 in 10.0 mi West 9.2 mph - N/A   Scattered Clouds
3:45 PM 48.2 °F - 33.8 °F 58% 29.95 in 10.0 mi NNW 5.8 mph - N/A   Scattered Clouds
4:45 PM 48.2 °F - 33.8 °F 58% 29.95 in 10.0 mi WNW 4.6 mph - N/A   Scattered Clouds
5:45 PM 48.2 °F - 33.8 °F 58% 29.95 in 10.0 mi ENE 9.2 mph - N/A   Scattered Clouds
6:45 PM 41.0 °F 34.3 °F 32.0 °F 70% 29.96 in 10.0 mi East 11.5 mph - N/A   Clear
7:45 PM 37.4 °F 29.8 °F 30.2 °F 75% 29.97 in 10.0 mi East 11.5 mph - N/A   Clear
8:45 PM 35.6 °F 29.9 °F 30.2 °F 81% 29.98 in 10.0 mi East 6.9 mph - N/A   Clear
9:15 PM 35.6 °F 28.6 °F 30.2 °F 81% 29.98 in 10.0 mi ESE 9.2 mph - N/A   Clear
9:35 PM 35.6 °F 28.6 °F 30.2 °F 81% 29.98 in 10.0 mi ESE 9.2 mph - N/A   Clear
9:55 PM 33.8 °F 27.0 °F 30.2 °F 87% 29.98 in 10.0 mi ESE 8.1 mph - N/A   Clear
10:15 PM 33.8 °F 27.7 °F 30.2 °F 87% 29.98 in 10.0 mi ESE 6.9 mph - N/A   Clear
10:35 PM 33.8 °F 27.0 °F 30.2 °F 87% 29.97 in 10.0 mi ESE 8.1 mph - N/A   Clear
10:55 PM 33.8 °F 27.7 °F 30.2 °F 87% 29.96 in 10.0 mi ESE 6.9 mph - N/A   Clear
11:15 PM 33.8 °F 27.7 °F 30.2 °F 87% 29.95 in 10.0 mi East 6.9 mph - N/A   Clear
11:35 PM 32.0 °F 25.6 °F 30.2 °F 93% 29.95 in 10.0 mi East 6.9 mph - N/A   Clear
11:55 PM 32.0 °F 24.2 °F 30.2 °F 93% 29.94 in 10.0 mi East 9.2 mph - N/A   Clear